Location: ????????
(54.9045°N, 39.1041°E)
Time: 07:13:18
(UTC+00:00)

NOSS 3-1 (A) - Visible Passes

Search period start: 16 July 2024 00:00
Search period end: 26 July 2024 00:00
Orbit: 657 x 1552 km, 63.4° (Epoch: 14 July)

Date Brightness Start Highest point End Pass type
(mag) Time Alt. Az. Time Alt. Az. Time Alt. Az.
16 Jul 3.4 20:32:12 13° SSW 20:36:32 51° SE 20:42:28 10° NE visible
16 Jul 4.0 22:22:03 10° WSW 22:27:21 56° NNW 22:33:58 10° NE visible
17 Jul 5.0 00:13:47 10° WNW 00:19:23 40° N 00:26:19 10° ENE visible
17 Jul 3.8 19:47:35 12° S 19:51:43 34° ESE 19:57:03 10° ENE visible
17 Jul 3.6 21:36:48 10° WSW 21:42:03 71° NNW 21:48:37 10° NE visible
17 Jul 4.9 23:28:23 10° WNW 23:33:52 41° N 23:40:37 10° ENE visible
18 Jul 4.3 19:03:13 10° SSE 19:07:03 22° ESE 19:11:25 10° ENE visible
18 Jul 3.2 20:51:42 10° SW 20:56:52 88° SE 21:03:19 10° NE visible
18 Jul 4.6 22:42:58 10° W 22:48:22 44° NNW 22:55:02 10° ENE visible
19 Jul 3.2 20:06:49 10° SSW 20:11:50 63° SE 20:18:00 10° NE visible
19 Jul 4.3 21:57:35 10° W 22:02:55 50° NNW 22:09:33 10° NE visible
19 Jul 5.1 23:49:19 10° WNW 23:55:02 41° N 00:02:05 10° ENE visible
20 Jul 3.5 19:22:11 10° SSW 19:26:56 43° SE 19:32:39 10° NE visible
20 Jul 3.9 21:12:16 10° WSW 21:17:34 61° NNW 21:24:09 10° NE visible
20 Jul 5.0 23:03:58 10° WNW 23:09:30 40° N 23:16:20 10° ENE visible
21 Jul 4.0 18:37:55 10° S 18:42:12 28° ESE 18:47:09 10° ENE visible
21 Jul 3.4 20:27:05 10° SW 20:32:18 79° NW 20:38:50 10° NE visible
21 Jul 4.8 22:18:33 10° W 22:23:59 42° N 22:30:42 10° ENE visible
22 Jul 5.0 00:10:06 10° WNW 00:16:10 47° NNE 00:23:42 10° E visible
22 Jul 3.1 19:42:04 10° SW 19:47:11 77° SE 19:53:31 10° NE visible
22 Jul 4.5 21:33:09 10° W 21:38:30 46° NNW 21:45:09 10° NE visible
22 Jul 5.0 23:24:50 10° WNW 23:30:40 42° N 23:37:53 10° E visible
23 Jul 3.3 18:57:17 10° SSW 19:02:12 54° SE 19:08:12 10° NE visible
23 Jul 4.1 20:47:47 10° WSW 20:53:06 55° NNW 20:59:43 10° NE visible
23 Jul 5.0 22:39:31 10° WNW 22:45:09 40° N 22:52:06 10° ENE visible
24 Jul 4.6 00:30:44 10° NW 00:37:11 59° NNE 00:45:14 10° ESE visible
24 Jul 3.7 20:02:31 10° WSW 20:07:46 68° NNW 20:14:21 10° NE visible
24 Jul 4.9 21:54:07 10° WNW 21:59:37 41° N 22:06:23 10° ENE visible
24 Jul 4.8 23:45:34 10° NW 23:51:46 50° NNE 23:59:29 10° E visible
25 Jul 3.3 19:17:24 10° SW 19:22:35 89° NW 19:29:03 10° NE visible
25 Jul 4.7 21:08:43 10° W 21:14:07 44° NNW 21:20:48 10° ENE visible
25 Jul 5.0 23:00:20 10° WNW 23:06:18 44° NNE 23:13:41 10° E visible
